Flag for U.S.A. Weather past 2 weeks in Atlanta, Georgia, U.S.A.

Now
74 °F

Sunny.


Feels Like: 77 °F
Forecast: 57 / 75 °F
Wind: 14 mph from East

Location: Fulton County Airport-Brown Field

Current Time: Sep 23, 2014 at 6:25:37 PM

Latest Report: Sep 23, 2014 at 5:53 PM


Visibility: 10 mi

Pressure: 30.16 "Hg

Humidity: 52%

Dew point: 55 °F

Location of AtlantaLocation

Historic Weather in Atlanta — Graph

°F

Atlanta temperature yesterday

Maximum temperature yesterday: 79 °F (at 2:53 PM)
Minimum temperature yesterday: 59 °F (at 11:53 PM)
Average temperature yesterday: 71 °F

Past Weeks' High & Low Weather Summary

 TemperatureHumidityPressure
High90 °F (Sep 12, 2:53 PM)97% (Sep 12, 9:53 PM)30.22 "Hg (Sep 12, 9:53 PM)
Low55 °F (Sep 23, 4:53 AM)37% (Sep 22, 1:53 PM)29.87 "Hg (Sep 17, 5:53 PM)
Average74 °F75%30.04 "Hg
* Reported Sep 8 4:53 PM — Sep 23 4:53 PM, Atlanta, Weather by CustomWeather, © 2014

Note: Actual official high and low records may vary slightly from our data, if they occured in-between our weather recording intervals... More about our weather records

Advertising

Atlanta weather history for previous 24 hours

 ConditionsComfort  
Time TempWeatherWind HumidityBarometerVisibility
4:53 PM
Sep 23
76 °FScattered clouds.15 mph48%30.15 "Hg10 mi
3:53 PM77 °FScattered clouds.15 mph47%30.15 "Hg10 mi
2:53 PM78 °FScattered clouds.12 mph45%30.17 "Hg10 mi
1:53 PM76 °FPassing clouds.13 mph48%30.19 "Hg10 mi
12:53 PM74 °FPassing clouds.9 mph52%30.20 "Hg10 mi
11:53 AM73 °FScattered clouds.12 mph53%30.21 "Hg10 mi
10:53 AM71 °FSunny.16 mph55%30.20 "Hg10 mi
9:53 AM69 °FSunny.9 mph57%30.19 "Hg10 mi
8:53 AM63 °FSunny.No wind78%30.18 "Hg10 mi
7:53 AM55 °FClear.No wind93%30.17 "Hg10 mi
6:53 AM57 °FClear.3 mph87%30.16 "Hg10 mi
5:53 AM56 °FClear.No wind90%30.13 "Hg10 mi
4:53 AM55 °FClear.No wind93%30.11 "Hg10 mi
3:53 AM57 °FClear.3 mph87%30.11 "Hg10 mi
2:53 AM58 °FClear.No wind87%30.11 "Hg10 mi
1:53 AM59 °FClear.No wind84%30.11 "Hg10 mi
12:53 AM59 °FPassing clouds.No wind81%30.10 "Hg10 mi
11:53 PM
Sep 22
59 °FClear.No wind81%30.11 "Hg10 mi
10:53 PM63 °FClear.No wind70%30.11 "Hg10 mi
9:53 PM66 °FClear.3 mph56%30.09 "Hg10 mi
8:53 PM67 °FClear.5 mph57%30.06 "Hg10 mi
7:53 PM70 °FSunny.3 mph51%30.04 "Hg10 mi
6:53 PM74 °FSunny.9 mph45%30.03 "Hg10 mi
Weather by CustomWeather, © 2014

See weather overviewHow to use our weather pages